Location: Lake Zurich
(42.1970°N, 88.0930°W)
Time: 18:55:19
(UTC-05:00)

Amateur Radio Satellites - All Passes

Search period start: 24 April 2014 18:25
Search period end: 25 April 2014 18:25
Location: Lake Zurich, 42.1970°N, 88.0930°W

Satellite Date Start Highest point End Downlink Frequencies (MHz)
Time Altitude Azimuth
SO-67 24 Apr 18:26:46 18:29:03 17° 68° (ENE) 18:31:20 435.3500 MHz FM
AO-7 24 Apr 18:27:36 18:32:27 17° 271° (W) 18:37:21 29.400 - 29.500 MHz
ISS 24 Apr 18:49:25 18:52:31 33° 24° (NNE) 18:55:38 145.800 FM
HO-68 24 Apr 18:50:05 18:50:41 10° 46° (NE) 18:51:18 435.675 MHz FM
STRAND 1 24 Apr 19:13:29 19:18:22 44° 99° (E) 19:23:13 ?
Hamsat 24 Apr 19:13:52 19:17:14 23° 266° (W) 19:20:38 145.90 MHz
Saudisat 1A 24 Apr 19:23:26 19:27:28 36° 244° (WSW) 19:31:27 436.775 MHz
MaSat-1 24 Apr 19:55:55 19:57:58 19° 111° (ESE) 19:59:54 437.345 MHz
SO-67 24 Apr 19:58:55 20:01:59 29° 264° (W) 20:05:05 435.3500 MHz FM
JAS-2 24 Apr 20:07:35 20:12:21 28° 264° (W) 20:16:52 435.800 - 435.900 CW/SSB, 435.910 FM
ISS 24 Apr 20:26:06 20:29:17 38° 222° (SW) 20:32:27 145.800 FM
HO-68 24 Apr 20:29:56 20:36:44 51° 66° (ENE) 20:43:35 435.675 MHz FM
STRAND 1 24 Apr 20:53:17 20:57:16 24° 296° (WNW) 21:01:15 ?
Oscar 11 24 Apr 21:07:35 21:11:19 29° 69° (ENE) 21:15:04 145.825 FM, Beacon 2401.500 USB
FUNcube-1 24 Apr 21:17:20 21:18:50 12° 62° (ENE) 21:20:21 145.950 - 145.970 MHz USB
MaSat-1 24 Apr 21:34:58 21:36:15 13° 304° (NW) 21:37:29 437.345 MHz
SO-50 24 Apr 21:35:27 21:38:30 17° 39° (NE) 21:41:34 436.795 FM
HO-68 24 Apr 22:18:25 22:24:38 32° 264° (W) 22:30:55 435.675 MHz FM
Sapphire 24 Apr 22:34:36 22:38:37 22° 106° (ESE) 22:42:39 437.095 MHz 1200 baud AX-25 AFSK
Oscar 11 24 Apr 22:43:56 22:47:29 25° 265° (W) 22:51:05 145.825 FM, Beacon 2401.500 USB
FUNcube-1 24 Apr 22:50:36 22:54:44 65° 259° (W) 22:58:53 145.950 - 145.970 MHz USB
SO-50 24 Apr 23:14:58 23:19:38 81° 238° (WSW) 23:24:21 436.795 FM
PCSat 24 Apr 23:17:23 23:22:37 54° 114° (ESE) 23:27:54 145.825 MHz
UOSAT-12 24 Apr 23:25:46 23:28:18 14° 35° (NE) 23:30:50 437.025 FM, 437.400 FM
Sapphire 25 Apr 00:16:19 00:21:37 55° 304° (NW) 00:26:57 437.095 MHz 1200 baud AX-25 AFSK
KITSAT 1 25 Apr 00:49:27 00:55:59 28° 105° (ESE) 01:02:32 435.175 FM
PCSat 25 Apr 01:01:54 01:06:22 26° 313° (NW) 01:10:51 145.825 MHz
UOSAT-12 25 Apr 01:04:32 01:09:17 75° 55° (NE) 01:13:58 437.025 FM, 437.400 FM
OPAL 25 Apr 02:03:17 02:07:57 39° 66° (ENE) 02:12:42 ?
Sapphire 25 Apr 02:04:20 02:06:18 12° 326° (NW) 02:08:16 437.095 MHz 1200 baud AX-25 AFSK
Oscar 19 25 Apr 02:05:33 02:10:28 41° 98° (E) 02:15:21 437.125 CW, 437.150 USB
AO-27 25 Apr 02:05:57 02:09:55 22° 93° (E) 02:13:52 436.795 MHz FM
ITAMSAT 1 25 Apr 02:14:48 02:19:06 26° 95° (E) 02:23:23 435.822 SSB
Oscar 16 25 Apr 02:14:49 02:19:55 53° 100° (E) 02:24:59 437.025 USB, Beacon 2401.1428
Gurwin Techsat 1B 25 Apr 02:33:47 02:35:57 12° 88° (E) 02:38:06 435.225 FM
KITSAT 1 25 Apr 02:42:39 02:50:43 69° 305° (NW) 02:58:51 435.175 FM
UOSAT-12 25 Apr 02:46:37 02:48:48 13° 252° (WSW) 02:50:59 437.025 FM, 437.400 FM
AO-Echo 25 Apr 02:59:09 03:03:49 54° 100° (E) 03:08:23 ?
Uribyol 2 25 Apr 03:01:03 03:06:15 74° 103° (ESE) 03:11:26 436.500 FM
TMSAT-1 25 Apr 03:16:26 03:20:36 23° 93° (E) 03:24:44 436.925 FM
JAS-1B 25 Apr 03:39:16 03:43:23 20° 93° (E) 03:47:41 435.800 - 435.900 CW/SSB
OPAL 25 Apr 03:42:42 03:46:55 26° 263° (W) 03:51:13 ?
AO-27 25 Apr 03:44:42 03:49:39 47° 290° (WNW) 03:54:35 436.795 MHz FM
Oscar 19 25 Apr 03:45:20 03:49:36 26° 295° (WNW) 03:53:50 437.125 CW, 437.150 USB
RS-15 25 Apr 03:52:14 03:55:49 12° 95° (E) 03:59:20 29.354 - 29.394 USB, Beacon 29.352 USB
ITAMSAT 1 25 Apr 03:53:54 03:58:42 39° 291° (WNW) 04:03:29 435.822 SSB
Oscar 16 25 Apr 03:55:05 03:58:52 21° 297° (WNW) 04:02:38 437.025 USB, Beacon 2401.1428
Gurwin Techsat 1B 25 Apr 04:11:13 04:16:33 82° 285° (WNW) 04:21:51 435.225 FM
AO-7 25 Apr 04:31:46 04:39:01 32° 96° (E) 04:46:13 29.400 - 29.500 MHz
AO-Echo 25 Apr 04:39:08 04:42:09 17° 298° (WNW) 04:45:09 ?
KITSAT 1 25 Apr 04:41:50 04:47:46 21° 329° (NNW) 04:53:43 435.175 FM
Uribyol 2 25 Apr 04:42:10 04:45:06 15° 300° (WNW) 04:48:03 436.500 FM
TMSAT-1 25 Apr 04:55:41 05:00:43 46° 290° (WNW) 05:05:44 436.925 FM
Uosat F 25 Apr 05:01:22 05:06:24 77° 103° (ESE) 05:11:23 435.120 FM
JAS-1B 25 Apr 05:28:55 05:34:26 54° 289° (WNW) 05:40:21 435.800 - 435.900 CW/SSB
Gurwin Techsat 1B 25 Apr 05:53:50 05:55:39 12° 303° (WNW) 05:57:29 435.225 FM
RS-15 25 Apr 05:54:43 06:05:49 63° 115° (ESE) 06:16:33 29.354 - 29.394 USB, Beacon 29.352 USB
MaSat-1 25 Apr 05:54:52 05:58:00 85° 244° (WSW) 06:01:44 437.345 MHz
PCSat 25 Apr 06:23:59 06:25:16 11° 33° (NNE) 06:26:33 145.825 MHz
AO-7 25 Apr 06:24:03 06:32:10 59° 295° (WNW) 06:40:16 29.400 - 29.500 MHz
STRAND 1 25 Apr 06:29:52 06:34:56 68° 73° (ENE) 06:40:00 ?
Uosat F 25 Apr 06:42:00 06:44:32 14° 301° (WNW) 06:47:04 435.120 FM
KITSAT 1 25 Apr 06:44:09 06:47:01 12° 359° (N) 06:49:54 435.175 FM
AO-40 25 Apr 06:52:45 08:50:04 17° 126° (SE) 09:57:15 Beacon 2401.320
Hamsat 25 Apr 06:58:07 07:02:27 60° 100° (E) 07:06:46 145.90 MHz
JAS-2 25 Apr 07:13:46 07:18:46 31° 97° (E) 07:24:14 435.800 - 435.900 CW/SSB, 435.910 FM
Sapphire 25 Apr 07:21:00 07:25:18 23° 45° (NE) 07:29:33 437.095 MHz 1200 baud AX-25 AFSK
SO-67 25 Apr 07:23:14 07:25:43 18° 93° (E) 07:28:10 435.3500 MHz FM
PCSat 25 Apr 08:04:47 08:10:04 49° 55° (NE) 08:15:18 145.825 MHz
RS-15 25 Apr 08:08:10 08:18:41 44° 319° (NW) 08:29:01 29.354 - 29.394 USB, Beacon 29.352 USB
STRAND 1 25 Apr 08:11:51 08:14:36 15° 270° (W) 08:17:21 ?
AO-7 25 Apr 08:19:18 08:23:14 14° 316° (NW) 08:27:11 29.400 - 29.500 MHz
Hamsat 25 Apr 08:35:41 08:37:56 14° 297° (WNW) 08:40:12 145.90 MHz
KITSAT 1 25 Apr 08:40:33 08:46:21 21° 30° (NNE) 08:52:07 435.175 FM
SO-67 25 Apr 08:55:55 08:58:52 26° 289° (WNW) 09:01:48 435.3500 MHz FM
JAS-2 25 Apr 08:58:48 09:03:53 38° 291° (WNW) 09:09:30 435.800 - 435.900 CW/SSB, 435.910 FM
Sapphire 25 Apr 09:03:48 09:09:09 62° 245° (WSW) 09:14:28 437.095 MHz 1200 baud AX-25 AFSK
Saudisat 1A 25 Apr 09:29:57 09:34:16 51° 119° (ESE) 09:38:36 436.775 MHz
Oscar 10/S400 25 Apr 09:35:24 11:05:40 59° 218° (SW) 18:17:27 145.825 - 145.975 CW/USB, Beacon 145.810 USB
HO-68 25 Apr 09:44:18 09:51:14 49° 100° (E) 09:58:09 435.675 MHz FM
PCSat 25 Apr 09:48:50 09:53:10 25° 252° (WSW) 09:57:28 145.825 MHz
RS-15 25 Apr 10:26:53 10:34:57 22° 352° (N) 10:42:59 29.354 - 29.394 USB, Beacon 29.352 USB
Oscar 11 25 Apr 10:30:11 10:34:30 55° 100° (E) 10:38:46 145.825 FM, Beacon 2401.500 USB
KITSAT 1 25 Apr 10:35:23 10:43:28 65° 55° (NE) 10:51:28 435.175 FM
FUNcube-1 25 Apr 10:39:39 10:43:06 23° 95° (E) 10:46:36 145.950 - 145.970 MHz USB
Saudisat 1A 25 Apr 11:10:39 11:14:09 22° 317° (NW) 11:17:39 436.775 MHz
HO-68 25 Apr 11:32:24 11:38:42 35° 298° (WNW) 11:44:59 435.675 MHz FM
Oscar 16 25 Apr 11:57:25 11:58:54 11° 57° (ENE) 12:00:23 437.025 USB, Beacon 2401.1428
Oscar 11 25 Apr 12:07:46 12:10:14 15° 297° (WNW) 12:12:42 145.825 FM, Beacon 2401.500 USB
FUNcube-1 25 Apr 12:15:42 12:19:34 33° 290° (WNW) 12:23:30 145.950 - 145.970 MHz USB
KITSAT 1 25 Apr 12:31:37 12:38:17 29° 254° (WSW) 12:44:55 435.175 FM
AO-Echo 25 Apr 12:38:44 12:39:22 10° 58° (ENE) 12:40:00 ?
Uribyol 2 25 Apr 12:42:48 12:45:50 16° 60° (ENE) 12:48:52 436.500 FM
RS-15 25 Apr 12:42:56 12:52:12 30° 28° (NNE) 13:01:32 29.354 - 29.394 USB, Beacon 29.352 USB
ISS 25 Apr 13:08:25 13:11:38 51° 141° (SE) 13:14:54 145.800 FM
Oscar 19 25 Apr 13:22:51 13:27:55 62° 73° (ENE) 13:33:03 437.125 CW, 437.150 USB
AO-27 25 Apr 13:24:27 13:29:08 35° 68° (ENE) 13:33:49 436.795 MHz FM
SO-50 25 Apr 13:31:07 13:34:56 28° 114° (ESE) 13:38:48 436.795 FM
Oscar 16 25 Apr 13:32:15 13:37:23 81° 75° (ENE) 13:42:35 437.025 USB, Beacon 2401.1428
ITAMSAT 1 25 Apr 13:33:13 13:38:02 42° 69° (ENE) 13:42:53 435.822 SSB
AO-7 25 Apr 13:46:22 13:48:13 11° 40° (NE) 13:50:05 29.400 - 29.500 MHz
Gurwin Techsat 1B 25 Apr 13:54:37 13:58:38 23° 63° (ENE) 14:02:40 435.225 FM
AO-Echo 25 Apr 14:12:10 14:17:20 77° 75° (ENE) 14:22:22 ?
Uribyol 2 25 Apr 14:19:35 14:24:43 71° 257° (WSW) 14:29:53 436.500 FM
JAS-1B 25 Apr 14:25:28 14:30:53 23° 63° (ENE) 14:35:44 435.800 - 435.900 CW/SSB
TMSAT-1 25 Apr 14:37:32 14:42:22 38° 68° (ENE) 14:47:13 436.925 FM
Uosat F 25 Apr 14:39:16 14:41:59 15° 60° (ENE) 14:44:43 435.120 FM
ISS 25 Apr 14:45:34 14:48:31 28° 339° (NNW) 14:51:28 145.800 FM
RS-15 25 Apr 14:55:31 15:06:32 80° 55° (NE) 15:17:49 29.354 - 29.394 USB, Beacon 29.352 USB
AO-27 25 Apr 15:04:12 15:08:40 29° 264° (W) 15:13:09 436.795 MHz FM
Oscar 19 25 Apr 15:04:31 15:07:41 16° 269° (W) 15:10:53 437.125 CW, 437.150 USB
SO-50 25 Apr 15:11:18 15:15:24 34° 312° (NW) 15:19:33 436.795 FM
ITAMSAT 1 25 Apr 15:13:30 15:17:41 25° 266° (W) 15:21:52 435.822 SSB
Oscar 16 25 Apr 15:15:24 15:17:22 12° 271° (W) 15:19:20 437.025 USB, Beacon 2401.1428
UOSAT-12 25 Apr 15:17:33 15:20:48 20° 111° (ESE) 15:24:06 437.025 FM, 437.400 FM
AO-7 25 Apr 15:31:11 15:38:55 46° 62° (ENE) 15:46:41 29.400 - 29.500 MHz
Gurwin Techsat 1B 25 Apr 15:33:07 15:38:15 50° 260° (W) 15:43:26 435.225 FM
OPAL 25 Apr 15:50:54 15:56:09 77° 105° (ESE) 16:01:21 ?
AO-Echo 25 Apr 15:54:21 15:56:36 13° 270° (W) 15:58:50 ?
JAS-1B 25 Apr 16:13:34 16:21:11 66° 257° (WSW) 16:27:36 435.800 - 435.900 CW/SSB
Uosat F 25 Apr 16:15:09 16:20:10 74° 257° (WSW) 16:25:12 435.120 FM
TMSAT-1 25 Apr 16:17:52 16:22:21 28° 265° (W) 16:26:53 436.925 FM
ISS 25 Apr 16:23:50 16:26:02 16° 359° (N) 16:28:15 145.800 FM
UOSAT-12 25 Apr 16:56:08 17:00:34 50° 308° (NW) 17:05:07 437.025 FM, 437.400 FM
RS-15 25 Apr 17:09:05 17:17:43 28° 256° (WSW) 17:26:35 29.354 - 29.394 USB, Beacon 29.352 USB
AO-7 25 Apr 17:24:03 17:31:44 42° 261° (W) 17:39:30 29.400 - 29.500 MHz
JAS-2 25 Apr 17:30:24 17:32:40 13° 59° (ENE) 17:34:53 435.800 - 435.900 CW/SSB, 435.910 FM
OPAL 25 Apr 17:31:23 17:34:23 16° 303° (WNW) 17:37:24 ?
Hamsat 25 Apr 17:52:05 17:56:06 44° 72° (ENE) 18:00:11 145.90 MHz
Saudisat 1A 25 Apr 17:56:22 18:00:40 47° 52° (NE) 18:04:53 436.775 MHz
ISS 25 Apr 18:00:45 18:03:36 25° 19° (NNE) 18:06:28 145.800 FM
